Weather in Dänew

Turkmenistan     39°15′36″N   63°11′20″E
temp.,
°C
wind,
m/s
gust,
m/s
humid.,
%
clouds,
%
prec.,
mm/h
press.,
hPa
HPBL,
m
7 may, fri
fri723:00+22e22331 0.0 101411
02:00+21ese22361 0.0 101411
05:00+20ese224299 0.0 101412
08:00+23ene2236100 0.0 1014181
11:00+28ese332751 0.0 10141734
14:00+30s322475 0.0 10132457
17:00+31ssw2222100 0.0 10122524
20:00+30nw2223100 0.0 1012486
8 may, sat
sat823:00+28n4627100 0.0 1012160
02:00+26nne442851 0.0 101262
05:00+24ne22315 0.0 101212
08:00+27nne332536 0.0 1014286
11:00+31n322158 0.0 10131481
14:00+34nnw431847 0.0 10122932
17:00+33nw9520100 0.0 10112870
20:00+28nnw111218100 0.0 10131156
9 may, sun
sun923:00+24n9113287 0.0 1014550
02:00+22n8103693 0.0 1014551
05:00+21n6104498 0.0 1014560
08:00+22n7840100 0.0 1015585
11:00+25n6629100 0.1 10151138
14:00+28n6624100 0.0 10131438
17:00+29nne7721100 0.0 10111510
20:00+28nne6817100 0.0 1011643
10 may, mon
mon1023:00+26ne61020100 0.0 1010624
02:00+24nne592489 0.0 1009252
05:00+23nne61125100 0.0 1009397
08:00+25ne5725100 0.0 1010513
11:00+29nne772028 0.0 1010876
14:00+32n6517100 0.0 10092104
17:00+32n861855 0.0 10092537
20:00+28nne6101989 0.0 1010453
11 may, tue
tue1123:00+26nne611195 0.0 1012500
02:00+24nne815170 0.0 1012477
05:00+22nne613210 0.0 1013322
08:00+24nne711180 0.0 1015706
11:00+28nne89130 0.0 10151705
14:00+31nne89100 0.0 10142296
17:00+32nne8990 0.0 10122602
20:00+29nne711110 0.0 1013419